TimeMDT,TemperatureF,Dew PointF,Humidity,Sea Level PressureIn,VisibilityMPH,Wind Direction,Wind SpeedMPH,Gust SpeedMPH,PrecipitationIn,Events,Conditions,WindDirDegrees,DateUTC
12:15 AM,57.2,46.4,67,30.37,10.0,ENE,6.9,-,N/A,,Partly Cloudy,70,2013-07-11 06:15:00
12:35 AM,57.2,46.4,67,30.36,10.0,ENE,3.5,-,N/A,,Clear,70,2013-07-11 06:35:00
12:55 AM,55.4,46.4,72,30.36,10.0,NNE,4.6,-,N/A,,Clear,20,2013-07-11 06:55:00
1:15 AM,55.4,44.6,67,30.36,10.0,North,5.8,-,N/A,,Clear,10,2013-07-11 07:15:00
1:35 AM,55.4,48.2,77,30.35,10.0,North,5.8,-,N/A,,Clear,10,2013-07-11 07:35:00
1:55 AM,57.2,48.2,72,30.35,10.0,North,5.8,-,N/A,,Clear,10,2013-07-11 07:55:00
2:15 AM,55.4,48.2,77,30.34,10.0,North,5.8,-,N/A,,Clear,350,2013-07-11 08:15:00
2:35 AM,55.4,48.2,77,30.34,10.0,Calm,Calm,-,N/A,,Clear,0,2013-07-11 08:35:00
2:55 AM,55.4,48.2,77,30.33,10.0,NNE,3.5,-,N/A,,Clear,30,2013-07-11 08:55:00
3:15 AM,53.6,46.4,77,30.33,10.0,North,5.8,-,N/A,,Clear,10,2013-07-11 09:15:00
3:35 AM,53.6,48.2,82,30.33,10.0,Calm,Calm,-,N/A,,Clear,0,2013-07-11 09:35:00
3:55 AM,53.6,48.2,82,30.33,10.0,NNE,5.8,-,N/A,,Clear,20,2013-07-11 09:55:00
4:15 AM,53.6,48.2,82,30.32,10.0,NNE,8.1,-,N/A,,Clear,20,2013-07-11 10:15:00
4:35 AM,53.6,46.4,77,30.33,10.0,Calm,Calm,-,N/A,,Clear,0,2013-07-11 10:35:00
4:55 AM,53.6,46.4,77,30.33,10.0,Calm,Calm,-,N/A,,Clear,0,2013-07-11 10:55:00
5:15 AM,53.6,46.4,77,30.34,10.0,NE,4.6,-,N/A,,Clear,40,2013-07-11 11:15:00
5:35 AM,53.6,46.4,77,30.34,10.0,North,3.5,-,N/A,,Clear,360,2013-07-11 11:35:00
5:55 AM,51.8,46.4,82,30.34,10.0,NNE,8.1,-,N/A,,Clear,20,2013-07-11 11:55:00
6:15 AM,53.6,46.4,77,30.35,10.0,NNE,6.9,-,N/A,,Clear,20,2013-07-11 12:15:00
6:35 AM,55.4,48.2,77,30.35,10.0,North,4.6,-,N/A,,Clear,10,2013-07-11 12:35:00
6:55 AM,55.4,48.2,77,30.37,10.0,Calm,Calm,-,N/A,,Clear,0,2013-07-11 12:55:00
7:15 AM,57.2,48.2,72,30.38,10.0,North,4.6,-,N/A,,Clear,10,2013-07-11 13:15:00
7:35 AM,60.8,48.2,63,30.39,10.0,Calm,Calm,-,N/A,,Clear,0,2013-07-11 13:35:00
7:55 AM,62.6,50.0,63,30.39,10.0,Calm,Calm,-,N/A,,Clear,0,2013-07-11 13:55:00
8:15 AM,64.4,50.0,59,30.39,10.0,ESE,5.8,-,N/A,,Mostly Cloudy,120,2013-07-11 14:15:00
8:35 AM,66.2,50.0,56,30.39,10.0,Calm,Calm,-,N/A,,Scattered Clouds,0,2013-07-11 14:35:00
8:55 AM,68.0,51.8,56,30.38,10.0,SW,11.5,-,N/A,,Clear,230,2013-07-11 14:55:00
9:15 AM,69.8,51.8,53,30.38,10.0,WSW,10.4,-,N/A,,Clear,240,2013-07-11 15:15:00
9:35 AM,69.8,53.6,56,30.38,10.0,SW,4.6,-,N/A,,Clear,220,2013-07-11 15:35:00
9:55 AM,71.6,53.6,53,30.37,10.0,WSW,6.9,-,N/A,,Partly Cloudy,240,2013-07-11 15:55:00
10:15 AM,73.4,53.6,50,30.37,10.0,WSW,9.2,-,N/A,,Partly Cloudy,240,2013-07-11 16:15:00
10:35 AM,73.4,53.6,50,30.37,10.0,WSW,6.9,-,N/A,,Clear,240,2013-07-11 16:35:00
10:55 AM,75.2,53.6,47,30.36,10.0,West,10.4,-,N/A,,Partly Cloudy,260,2013-07-11 16:55:00
11:15 AM,75.2,53.6,47,30.36,10.0,SW,10.4,19.6,N/A,,Mostly Cloudy,220,2013-07-11 17:15:00
11:35 AM,75.2,53.6,47,30.35,10.0,SW,13.8,18.4,N/A,,Scattered Clouds,220,2013-07-11 17:35:00
11:55 AM,77.0,53.6,44,30.35,10.0,West,6.9,-,N/A,,Clear,260,2013-07-11 17:55:00
12:15 PM,78.8,53.6,42,30.34,10.0,West,5.8,-,N/A,,Scattered Clouds,270,2013-07-11 18:15:00
12:35 PM,78.8,53.6,42,30.32,10.0,West,8.1,16.1,N/A,,Partly Cloudy,270,2013-07-11 18:35:00
12:55 PM,80.6,53.6,39,30.31,10.0,SW,8.1,17.3,N/A,,Clear,220,2013-07-11 18:55:00
1:15 PM,78.8,53.6,42,30.30,10.0,WSW,9.2,19.6,N/A,,Mostly Cloudy,250,2013-07-11 19:15:00
1:35 PM,80.6,53.6,39,30.28,10.0,SSW,6.9,16.1,N/A,,Scattered Clouds,200,2013-07-11 19:35:00
1:55 PM,-9999,-9999,N/A,30.28,10.0,WSW,13.8,17.3,N/A,,Clear,240,2013-07-11 19:55:00
2:15 PM,82.4,48.2,30,30.27,10.0,WSW,6.9,-,N/A,,Clear,250,2013-07-11 20:15:00
2:35 PM,82.4,50.0,32,30.26,10.0,West,8.1,-,N/A,,Clear,280,2013-07-11 20:35:00
2:55 PM,82.4,51.8,35,30.25,10.0,WSW,9.2,-,0.03,,Clear,250,2013-07-11 20:55:00
3:15 PM,82.4,51.8,35,30.24,10.0,Calm,Calm,-,N/A,,Clear,0,2013-07-11 21:15:00
3:35 PM,84.2,51.8,33,30.23,10.0,West,8.1,-,N/A,,Scattered Clouds,260,2013-07-11 21:35:00
3:55 PM,84.2,48.2,29,30.22,10.0,SW,13.8,20.7,N/A,,Partly Cloudy,220,2013-07-11 21:55:00
4:15 PM,84.2,50.0,30,30.21,10.0,WNW,5.8,-,N/A,,Clear,290,2013-07-11 22:15:00
4:35 PM,84.2,48.2,29,30.20,10.0,WNW,11.5,-,N/A,Thunderstorm,Clear,290,2013-07-11 22:35:00
4:55 PM,84.2,50.0,30,30.20,10.0,South,28.8,-,N/A,Thunderstorm,Thunderstorm,180,2013-07-11 22:55:00
5:15 PM,80.6,51.8,37,30.20,10.0,South,21.9,-,N/A,,Scattered Clouds,190,2013-07-11 23:15:00
5:35 PM,78.8,51.8,39,30.20,10.0,South,10.4,-,N/A,,Clear,190,2013-07-11 23:35:00
5:55 PM,80.6,50.0,34,30.20,10.0,South,8.1,-,N/A,,Clear,170,2013-07-11 23:55:00
6:15 PM,80.6,48.2,32,30.19,10.0,SE,9.2,-,N/A,,Clear,140,2013-07-12 00:15:00
6:35 PM,82.4,48.2,30,30.19,10.0,SE,6.9,-,N/A,,Clear,130,2013-07-12 00:35:00
6:55 PM,82.4,46.4,28,30.19,10.0,ESE,9.2,-,N/A,,Clear,110,2013-07-12 00:55:00
7:15 PM,82.4,44.6,26,30.19,10.0,ESE,10.4,-,N/A,,Clear,120,2013-07-12 01:15:00
7:35 PM,80.6,44.6,28,30.19,10.0,ESE,6.9,-,N/A,,Clear,110,2013-07-12 01:35:00
7:55 PM,80.6,46.4,30,30.20,10.0,SSW,10.4,-,N/A,,Scattered Clouds,200,2013-07-12 01:55:00
8:15 PM,78.8,46.4,32,30.20,10.0,SSW,13.8,-,N/A,,Mostly Cloudy,210,2013-07-12 02:15:00
8:35 PM,77.0,46.4,34,30.21,10.0,SSW,10.4,-,N/A,,Mostly Cloudy,210,2013-07-12 02:35:00
8:55 PM,75.2,46.4,36,30.21,10.0,SSW,11.5,-,N/A,,Mostly Cloudy,200,2013-07-12 02:55:00
9:15 PM,75.2,46.4,36,30.22,10.0,South,8.1,-,N/A,,Scattered Clouds,180,2013-07-12 03:15:00
9:35 PM,75.2,48.2,38,30.23,10.0,South,9.2,-,N/A,,Mostly Cloudy,190,2013-07-12 03:35:00
9:55 PM,73.4,48.2,41,30.24,10.0,SSE,8.1,-,N/A,,Scattered Clouds,160,2013-07-12 03:55:00
10:15 PM,75.2,48.2,38,30.25,10.0,SSE,8.1,-,N/A,,Scattered Clouds,160,2013-07-12 04:15:00
10:35 PM,73.4,48.2,41,30.25,10.0,South,6.9,-,N/A,,Mostly Cloudy,170,2013-07-12 04:35:00
10:55 PM,73.4,48.2,41,30.26,10.0,South,6.9,-,N/A,,Mostly Cloudy,190,2013-07-12 04:55:00
11:15 PM,73.4,48.2,41,30.26,10.0,SSW,11.5,-,N/A,,Clear,200,2013-07-12 05:15:00
11:35 PM,73.4,48.2,41,30.27,10.0,South,10.4,-,N/A,,Clear,180,2013-07-12 05:35:00
11:55 PM,71.6,50.0,46,30.27,10.0,SSW,10.4,-,N/A,,Clear,200,2013-07-12 05:55:00